Hourly Weather Roundup
Issued by NWS Central Illinois

Home | Current Version | Previous Version | Text Only | Print | Product List | Glossary On
Versions: 1 2 3 4 5 6 7 8 9 10 11 12 13 14 15 16 17 18 19 20 21 22 23 24 25 26 27 28 29 30 31 32 33 34 35 36 37 38 39 40 41 42 43 44 45 46 47 48 49 50
000
NZUS43 KILX 011010
HWRILX

AREA WEATHER ROUNDUP
NATIONAL WEATHER SERVICE, LINCOLN IL
500 AM CDT WED OCT 01 2014


CITY           SKY/WX    TMP DP  RH WIND       PRES   REMARKS
BLOOMINGTON    NOT AVBL
CHAMPAIGN      PTCLDY    49  47  93 E7        29.97S
DECATUR        CLEAR     50  48  93 E7        29.96S
FLORA          CLEAR     55  53  94 CALM      29.94S
GALESBURG      PTCLDY    50  47  88 E9        29.93F
JACKSONVILLE   CLEAR     55  51  88 E6        29.93S FOG
LACON          CLEAR     48  45  87 CALM      29.96F
LAWRENCEVILLE  CLEAR     56  53  90 NE6       29.96R
LITCHFIELD     CLEAR     55  51  86 E9        29.93R
$$


CITY           SKY/WX    TMP DP  RH WIND       PRES   REMARKS
LINCOLN        MOCLDY    53  49  86 E6        29.94S
MACOMB         MOCLDY    51  49  92 SE7       29.95S
MATTOON        CLEAR     51  49  92 E6        29.95S
MT CARMEL AP   CLEAR     57  54  88 CALM      29.95S
OLNEY-NOBLE AP CLEAR     54  52  94 CALM      29.95S
PARIS          CLEAR     50  49  97 CALM      29.98S
PEORIA         MOCLDY    54  46  74 E7        29.96R
PONTIAC        CLEAR     48  46  93 E5        29.98S
RANTOUL        CLEAR     49  46  87 E6        29.98S
ROBINSON       CLEAR     55  53  95 E5        29.97R
SPRINGFIELD    CLEAR     53  49  86 E8        29.94S
TAYLORVILLE    CLEAR     52  48  87 E6        29.94S
$$

...REGIONAL REPORTS...


CITY           SKY/WX    TMP DP  RH WIND       PRES   REMARKS
CHICAGO O`HARE MOCLDY    54  46  74 SE13      30.00S
KANKAKEE       CLEAR     44  43  96 E6        30.01S
MOLINE         NOT AVBL
MOUNT VERNON   NOT AVBL
PITTSFIELD     CLEAR     56  53  89 E6        29.91F
QUINCY         CLEAR     56  52  86 SE10      29.88S
ROCKFORD       PTCLDY    50  47  89 E6        30.01R
$$


CITY           SKY/WX    TMP DP  RH WIND       PRES   REMARKS
BURLINGTON     CLEAR     53  49  86 SE9       29.90S
CEDAR RAPIDS   NOT AVBL
DES MOINES     RAIN      61  58  90 SE10      29.81S FOG
KIRKSVILLE     PTCLDY    60  32  34 E8        29.84S HAZE
OTTUMWA        CLOUDY    55  51  86 SE13      29.85F
ST LOUIS       CLEAR     63  59  87 E8        29.91R
$$


CITY           SKY/WX    TMP DP  RH WIND       PRES   REMARKS
TERRE HAUTE    CLEAR     51  48  89 E3        29.97S
EVANSVILLE     CLEAR     59  57  93 NE3       29.94S
INDIANAPOLIS   CLEAR     50  45  83 E5        29.99S
LAFAYETTE      CLEAR     45  44  97 CALM      30.00R
MADISON        CLOUDY    50  46  86 CALM      29.99S
MILWAUKEE      CLOUDY    56  48  74 SE8       30.00S
$$




USA.gov is the U.S. government's official web portal to all federal, state and local government web resources and services.